Hourly Data Report for September 14, 2004

TORONTO CITY
ONTARIO

43°40'00.000" N
79°24'00.000" W
112.50 m
6158355
71508
XTO

Download Data

Hourly Data (September 2004)
Hourly Data Report for September 14, 2004
TIME
LST
Temp Definition
°C
Dew Point Definition
°C
Rel Hum Definition
%
Precip. Amount Definition
mm

Wind Dir Definition
10's deg

Wind Spd Definition
km/h
Visibility Definition
km
Stn Press Definition
kPa
Hmdx Definition


Wind Chill Definition


Weather Definition


00:00 17.6 15.2 86   LegendMM LegendMM LegendMM 100.95     LegendNANA
01:00 17.6 14.6 83   LegendMM LegendMM LegendMM 100.92     LegendNANA
02:00 17.5 14.4 82   LegendMM LegendMM LegendMM 100.86     LegendNANA
03:00 17.5 14.7 84   LegendMM LegendMM LegendMM 100.84     LegendNANA
04:00 17.5 15.2 86   LegendMM LegendMM LegendMM 100.84     LegendNANA
05:00 17.5 15.6 89   LegendMM LegendMM LegendMM 100.84     LegendNANA
06:00 17.4 16.2 93   LegendMM LegendMM LegendMM 100.87     LegendNANA
07:00 18.0 16.8 93   LegendMM LegendMM LegendMM 100.93     LegendNANA
08:00 19.3 17.5 89   LegendMM LegendMM LegendMM 100.93     LegendNANA
09:00 20.3 17.5 84   LegendMM LegendMM LegendMM 100.94 26   LegendNANA
10:00 22.0 18.5 81   LegendMM LegendMM LegendMM 100.93 28   LegendNANA
11:00
12:00 23.6 18.3 72   LegendMM LegendMM LegendMM 100.88 30   LegendNANA
13:00 24.1 18.7 72   LegendMM LegendMM LegendMM 100.81 31   LegendNANA
14:00 22.4 17.9 76   LegendMM LegendMM LegendMM 100.77 28   LegendNANA
15:00 21.8 17.8 78   LegendMM LegendMM LegendMM 100.72 28   LegendNANA
16:00 22.0 17.8 77   LegendMM LegendMM LegendMM 100.71 28   LegendNANA
17:00 21.7 17.9 79   LegendMM LegendMM LegendMM 100.69 28   LegendNANA
18:00 21.7 18.1 80   LegendMM LegendMM LegendMM 100.67 28   LegendNANA
19:00 21.4 18.5 84   LegendMM LegendMM LegendMM 100.65 28   LegendNANA
20:00 21.2 18.8 86   LegendMM LegendMM LegendMM 100.67 28   LegendNANA
21:00 20.6 19.0 91   LegendMM LegendMM LegendMM 100.69 27   LegendNANA
22:00 21.2 19.1 88   LegendMM LegendMM LegendMM 100.67 28   LegendNANA
23:00 20.9 18.8 88   LegendMM LegendMM LegendMM 100.65 28   LegendNANA

Notes on Data Quality.

Legend

  • E = Estimated
  • M = Missing
  • NA = Not Available*
  • [empty] = Indicates an unobserved value
Date modified: